Location: Invercargill
(46.4000°S, 168.3500°E)
Time: 12:47:13
(UTC+13:00)

ISS - Visible Passes

Search period start: 24 January 2019 00:00
Search period end: 03 February 2019 00:00
Orbit: 404 x 410 km, 51.6° (Epoch: 24 January)

Date Brightness Start Highest point End Pass type
(mag) Time Alt. Az. Time Alt. Az. Time Alt. Az.
30 Jan -1.8 05:27:36 10° N 05:30:09 20° NE 05:32:42 10° E visible
31 Jan -1.3 04:38:10 11° NNE 04:38:57 12° NE 04:40:17 10° ENE visible
01 Feb -3.0 05:21:29 18° NNW 05:23:35 42° NE 05:26:48 10° ESE visible
02 Feb -2.3 04:32:02 25° NNE 04:32:15 25° NE 04:35:06 10° E visible
02 Feb -3.4 06:05:16 10° WNW 06:08:36 63° SSW 06:11:57 10° ESE visible
